Location: Bussy-Saint-Georges
(48.8410°N, 2.7017°E)
Time: 15:30:36
(UTC+00:00)

Cosmos 1544 Rocket - Pass Details

Date: 18 October 2021
Orbit: 603 x 632 km, 82.5° (Epoch: 28 November)

Event Time Altitude Azimuth Distance (km) Brightness Sun altitude
Rises 18:54:31 0° 192° (SSW) 2,909 7.1 -20.6°
Reaches altitude 10° 18:56:45 10° 194° (SSW) 2,008 6.2 -21.0°
Maximum altitude 19:01:12 76° 279° (W) 657 3.7 -21.7°
Drops below altitude 10° 19:05:43 10° 7° (N) 2,025 6.2 -22.4°
Sets 19:07:58 0° 9° (N) 2,936 7.1 -22.8°
